Regional Weather Roundup
Issued by NWS Kansas City/Pleasant Hill, MO

Home | Current Version | Previous Version | Graphics & Text | Print | Product List | Glossary Off
Versions: 1 2 3 4 5 6 7 8 9 10 11 12 13 14 15 16 17 18 19 20 21 22 23 24 25 26 27 28

000
ASUS43 KEAX 221310
RWREAX

WEATHER ROUNDUP FOR EASTERN KANSAS AND NORTHWEST MISSOURI
NATIONAL WEATHER SERVICE KANSAS CITY/PLEASANT HILL MO
700 AM CST MON JAN 22 2018

KSZ040-057-103>105-MOZ028-029-037-043-221400-
...KANSAS CITY METROPOLITAN AREA...

CITY           SKY/WX    TMP DP  RH WIND       PRES   REMARKS
K.C. INTL      CLOUDY    37  35  92 S17       29.46R WCI  27
K.C. DOWNTOWN  MOCLDY    39  33  79 SW22G29   29.49R WCI  29
LEES SUMMIT    CLOUDY    38  34  85 SW20G30   29.50R WCI  28
OLATHE - IXD   CLOUDY    35  33  92 S15       29.49F WCI  25
OLATHE - OJC   CLOUDY    35  33  92 SW12G20   29.49S WCI  27
LAWRENCE       CLOUDY    37  34  89 S16       29.47F WCI  28

$$

MOZ001>008-011>017-020>025-030>033-038>040-044>046-053-054-221400-
...NORTHERN AND CENTRAL MISSOURI...

CITY           SKY/WX    TMP DP  RH WIND       PRES   REMARKS
ST. JOSEPH     CLOUDY    38  38 100 SW10      29.44R WCI  31
MOSBY          PTSUNNY   39  34  81 S5        29.49R
WARRENSBURG    PTCLDY    41  32  70 S16G24    29.53R WCI  33
WHITEMAN AFB   CLEAR     41  34  76 SW18      29.49R WCI  33
CLINTON        PTCLDY    39  32  75 SW12G22   29.58R WCI  32
SEDALIA        CLEAR     45  35  68 SW17G32   29.54R
WARSAW         NOT AVBL
CHILLICOTHE      N/A     47  39  74 S13       29.44S
KIRKSVILLE     CLEAR     50  50 100 S16       29.45F

$$

MOZ041-047>049-056>058-063>065-088>090-097-221400-
...EASTERN AND SOUTHERN MISSOURI...

CITY           SKY/WX    TMP DP  RH WIND       PRES   REMARKS
ST. LOUIS INTL CLOUDY    54  54 100 S16G22    29.59F
SPIRIT OF STL  MOCLDY    55  53  93 S10G20    29.58F
COLUMBIA       PTCLDY    50  46  86 S13       29.53S
JEFFERSON CITY CLEAR     53  46  77 MISG      29.55S
ROLLA          CLEAR     50  48  93 S14       29.59R
OSAGE BEACH    CLEAR     49  43  80 S15       29.58
SPRINGFIELD    CLEAR     41  32  70 SW10      29.62R WCI  35
BRANSON        PTCLDY    45  28  53 SW16G25   29.67S
JOPLIN         CLEAR     38  30  73 SW16G26   29.62S WCI  29
WEST PLAINS    CLEAR     50  44  80 S8        29.66S

$$

IAZ060-094-KSZ022-034>040-054-083-096-NEZ052-066-093-221400-
...KANSAS...SOUTHEAST NEBRASKA AND IOWA...

CITY           SKY/WX    TMP DP  RH WIND       PRES   REMARKS
TOPEKA         CLOUDY    36  34  92 SW7       29.46S WCI  30
MANHATTAN      CLOUDY    34  32  92 SW9       29.44S WCI  27
EMPORIA        CLOUDY    36  31  82 SW15      29.46S WCI  27
WICHITA        CLOUDY    38  31  76 W21G30    29.52R WCI  28
OMAHA          LGT SNOW  34  33  96 N12       29.44S FOG     WCI  25
LINCOLN        CLOUDY    34  32  92 N21       29.46R WCI  22
FALLS CITY     FOG       37  36  96 W9        29.41S VSB 3/4 WCI  30
LAMONI         CLOUDY    49  47  93 S14G22    29.35F
DES MOINES     FOG       40  39  97 NE14      29.37F VSB 1/2 WCI  32

$$





USA.gov is the U.S. government's official web portal to all federal, state and local government web resources and services.